{"data":{"norad_id":62832,"epoch":"2026-05-25T05:09:48.135744Z","epoch_age_seconds":70548,"freshness":"FRESH","line1":"1 62832U 25019D   26145.21514046  .00275983  00000+0  20765-2 0  9994","line2":"2 62832  42.9998 204.9423 0001672 249.7639 110.3049 15.70922260 75918","mean_motion":15.7092226,"eccentricity":0.0001672,"inclination_deg":42.9998,"raan_deg":204.9423,"arg_perigee_deg":249.7639,"mean_anomaly_deg":110.3049,"bstar":0.0020765,"rev_number":7591,"period_min":91.665898222106,"perigee_km":355.13396618177,"apogee_km":357.38594852431,"semimajor_km":6734.396957353,"source":"CELESTRAK","updated_at":"2026-05-25T13:38:19.778488Z"}}